KLM209 EGCC-EHAM

Flight info

Callsign KLM209
Flight time 0h 47m
Altitude 33000
Route DESIG L603 LAMSO
Aircraft B738/M-SDE2E3FGHIRWXY/LB1

Departure

Time 2026-05-06 08:40
Airport Manchester Airport (EGCC)

Arrival

Time 2026-05-06 09:28
Airport Amsterdam Airport Schiphol (EHAM)
Time Latitude Longitude Altitude Speed Heading
2026-05-06 08:06 53.36896 -2.28796 232 ft 0 kts 135°
2026-05-06 08:06 53.36894 -2.28792 232 ft 0 kts 135°
2026-05-06 08:09 53.36894 -2.28793 232 ft 0 kts 135°
2026-05-06 08:25 53.36901 -2.28804 232 ft 3 kts 135°
2026-05-06 08:25 53.36919 -2.28827 233 ft 4 kts 168°
2026-05-06 08:25 53.36940 -2.28819 233 ft 4 kts 222°
2026-05-06 08:25 53.36951 -2.28803 236 ft 1 kts 224°
2026-05-06 08:26 53.36952 -2.28801 236 ft 2 kts 224°
2026-05-06 08:29 53.36949 -2.28806 236 ft 2 kts 224°
2026-05-06 08:30 53.36917 -2.28859 233 ft 11 kts 225°
2026-05-06 08:30 53.36854 -2.28964 232 ft 13 kts 225°
2026-05-06 08:30 53.36776 -2.29039 232 ft 13 kts 199°
2026-05-06 08:30 53.36704 -2.28970 232 ft 13 kts 134°
2026-05-06 08:31 53.36634 -2.28889 234 ft 12 kts 152°
2026-05-06 08:31 53.36584 -2.28780 233 ft 12 kts 113°
2026-05-06 08:31 53.36535 -2.28670 232 ft 12 kts 134°
2026-05-06 08:31 53.36479 -2.28575 232 ft 11 kts 134°
2026-05-06 08:32 53.36420 -2.28495 232 ft 11 kts 169°
2026-05-06 08:32 53.36346 -2.28500 232 ft 11 kts 154°
2026-05-06 08:32 53.36293 -2.28416 232 ft 10 kts 134°
2026-05-06 08:32 53.36243 -2.28331 232 ft 10 kts 134°
2026-05-06 08:33 53.36195 -2.28247 232 ft 10 kts 134°
2026-05-06 08:33 53.36146 -2.28162 232 ft 11 kts 134°
2026-05-06 08:33 53.36091 -2.28067 232 ft 12 kts 134°
2026-05-06 08:33 53.36035 -2.27970 232 ft 11 kts 134°
2026-05-06 08:34 53.35979 -2.27879 232 ft 11 kts 141°
2026-05-06 08:34 53.35832 -2.27860 232 ft 11 kts 186°
2026-05-06 08:34 53.35759 -2.27872 232 ft 10 kts 186°
2026-05-06 08:35 53.35687 -2.27885 233 ft 10 kts 186°
2026-05-06 08:35 53.35621 -2.27913 233 ft 10 kts 216°
2026-05-06 08:35 53.35576 -2.27998 232 ft 10 kts 231°
2026-05-06 08:35 53.35532 -2.28082 232 ft 10 kts 221°
2026-05-06 08:36 53.35472 -2.28140 232 ft 11 kts 201°
2026-05-06 08:36 53.35385 -2.28166 232 ft 14 kts 186°
2026-05-06 08:36 53.35282 -2.28230 232 ft 17 kts 212°
2026-05-06 08:36 53.35194 -2.28376 232 ft 18 kts 231°
2026-05-06 08:37 53.35117 -2.28536 232 ft 17 kts 231°
2026-05-06 08:37 53.35043 -2.28689 232 ft 17 kts 228°
2026-05-06 08:37 53.34965 -2.28826 232 ft 16 kts 226°
2026-05-06 08:37 53.34890 -2.28958 232 ft 15 kts 226°
2026-05-06 08:38 53.34819 -2.29087 232 ft 15 kts 229°
2026-05-06 08:38 53.34755 -2.29217 232 ft 14 kts 232°
2026-05-06 08:38 53.34685 -2.29323 232 ft 13 kts 205°
2026-05-06 08:38 53.34596 -2.29335 233 ft 13 kts 165°
2026-05-06 08:39 53.34543 -2.29236 232 ft 13 kts 81°
2026-05-06 08:39 53.34597 -2.29106 232 ft 20 kts 51°
2026-05-06 08:39 53.34831 -2.28622 237 ft 90 kts 51°
2026-05-06 08:39 53.35366 -2.27520 242 ft 150 kts 52°
2026-05-06 08:40 53.36065 -2.26050 779 ft 165 kts 52°
2026-05-06 08:40 53.36782 -2.24503 1706 ft 170 kts 52°
2026-05-06 08:40 53.37498 -2.22934 2639 ft 165 kts 53°
2026-05-06 08:40 53.38214 -2.21372 3305 ft 182 kts 52°
2026-05-06 08:41 53.39042 -2.19570 3545 ft 207 kts 52°
2026-05-06 08:41 53.39961 -2.17564 3886 ft 222 kts 52°
2026-05-06 08:41 53.40911 -2.15480 4445 ft 229 kts 51°
2026-05-06 08:41 53.41553 -2.14069 4848 ft 230 kts 50°
2026-05-06 08:42 53.42536 -2.11903 5075 ft 236 kts 50°
2026-05-06 08:42 53.43105 -2.10646 5377 ft 238 kts 50°
2026-05-06 08:42 53.44002 -2.08662 5949 ft 241 kts 50°
2026-05-06 08:43 53.45059 -2.06324 6321 ft 260 kts 50°
2026-05-06 08:43 53.46163 -2.03876 7035 ft 265 kts 50°
2026-05-06 08:43 53.47284 -2.01385 7815 ft 269 kts 50°
2026-05-06 08:43 53.48420 -1.98856 8542 ft 274 kts 50°
2026-05-06 08:44 53.49578 -1.96277 9306 ft 279 kts 50°
2026-05-06 08:44 53.50761 -1.93639 10012 ft 285 kts 50°
2026-05-06 08:44 53.51908 -1.90836 10444 ft 304 kts 62°
2026-05-06 08:44 53.52331 -1.87222 10615 ft 333 kts 92°
2026-05-06 08:45 53.51821 -1.83307 10908 ft 352 kts 105°
2026-05-06 08:45 53.51082 -1.79335 11526 ft 358 kts 107°
2026-05-06 08:45 53.50321 -1.75326 12204 ft 364 kts 107°
2026-05-06 08:45 53.49563 -1.71235 12846 ft 370 kts 106°
2026-05-06 08:46 53.48814 -1.67047 13467 ft 378 kts 106°
2026-05-06 08:46 53.48064 -1.62794 14204 ft 381 kts 106°
2026-05-06 08:46 53.47311 -1.58516 14864 ft 386 kts 106°
2026-05-06 08:46 53.46536 -1.54166 15552 ft 389 kts 107°
2026-05-06 08:47 53.45750 -1.49801 16290 ft 392 kts 107°
2026-05-06 08:47 53.44952 -1.45387 16938 ft 398 kts 107°
2026-05-06 08:47 53.44146 -1.40936 17653 ft 400 kts 107°
2026-05-06 08:47 53.43335 -1.36454 18304 ft 405 kts 107°
2026-05-06 08:48 53.42508 -1.31894 18867 ft 410 kts 107°
2026-05-06 08:48 53.41677 -1.27326 19506 ft 411 kts 107°
2026-05-06 08:48 53.40860 -1.22705 20097 ft 415 kts 107°
2026-05-06 08:48 53.40040 -1.18054 20650 ft 418 kts 107°
2026-05-06 08:49 53.39190 -1.13374 21214 ft 422 kts 108°
2026-05-06 08:49 53.38320 -1.08656 21767 ft 425 kts 108°
2026-05-06 08:49 53.37452 -1.03964 22300 ft 429 kts 108°
2026-05-06 08:49 53.36555 -0.99124 22834 ft 432 kts 108°
2026-05-06 08:50 53.35659 -0.94290 23354 ft 436 kts 108°
2026-05-06 08:50 53.34759 -0.89433 23810 ft 439 kts 108°
2026-05-06 08:50 53.33861 -0.84599 24235 ft 442 kts 108°
2026-05-06 08:50 53.32945 -0.79677 24664 ft 444 kts 108°
2026-05-06 08:51 53.32023 -0.74730 25086 ft 447 kts 108°
2026-05-06 08:51 53.31093 -0.69763 25495 ft 449 kts 108°
2026-05-06 08:51 53.30153 -0.64763 25897 ft 452 kts 108°
2026-05-06 08:51 53.29205 -0.59737 26297 ft 455 kts 108°
2026-05-06 08:52 53.28250 -0.54685 26681 ft 457 kts 108°
2026-05-06 08:52 53.27288 -0.49607 27053 ft 460 kts 108°
2026-05-06 08:52 53.26321 -0.44511 27425 ft 462 kts 108°
2026-05-06 08:52 53.25346 -0.39366 27786 ft 465 kts 108°
2026-05-06 08:53 53.24369 -0.34197 28135 ft 467 kts 108°
2026-05-06 08:53 53.23389 -0.29020 28489 ft 469 kts 108°
2026-05-06 08:53 53.22392 -0.23814 28833 ft 472 kts 109°
2026-05-06 08:53 53.21385 -0.18598 29169 ft 474 kts 109°
2026-05-06 08:54 53.20371 -0.13364 29595 ft 474 kts 109°
2026-05-06 08:54 53.19361 -0.08150 30138 ft 471 kts 109°
2026-05-06 08:54 53.18356 -0.02976 30573 ft 469 kts 109°
2026-05-06 08:54 53.17351 0.02198 30944 ft 468 kts 109°
2026-05-06 08:55 53.16347 0.07363 31292 ft 468 kts 109°
2026-05-06 08:55 53.15342 0.12527 31662 ft 467 kts 109°
2026-05-06 08:55 53.14342 0.17656 32084 ft 465 kts 109°
2026-05-06 08:55 53.13341 0.22777 32485 ft 464 kts 109°
2026-05-06 08:56 53.12341 0.27882 32824 ft 464 kts 109°
2026-05-06 08:56 53.11349 0.32927 33012 ft 465 kts 109°
2026-05-06 08:56 53.10338 0.38058 32993 ft 466 kts 109°
2026-05-06 08:57 53.08305 0.48331 32989 ft 464 kts 109°
2026-05-06 08:57 53.06296 0.58431 32986 ft 462 kts 109°
2026-05-06 08:58 53.04273 0.68548 32982 ft 461 kts 110°
2026-05-06 08:58 53.02246 0.78639 32983 ft 460 kts 110°
2026-05-06 08:59 53.00211 0.88716 32986 ft 460 kts 110°
2026-05-06 08:59 52.98170 0.98787 32987 ft 461 kts 109°
2026-05-06 09:00 52.96702 1.09147 32982 ft 462 kts 101°
2026-05-06 09:00 52.95561 1.19652 32977 ft 463 kts 101°
2026-05-06 09:01 52.94397 1.30148 32976 ft 463 kts 102°
2026-05-06 09:01 52.93180 1.40636 32966 ft 463 kts 102°
2026-05-06 09:02 52.91936 1.51097 32969 ft 462 kts 102°
2026-05-06 09:02 52.90684 1.61539 32968 ft 461 kts 102°
2026-05-06 09:03 52.89434 1.71890 32965 ft 460 kts 102°
2026-05-06 09:03 52.88164 1.82334 32961 ft 459 kts 102°
2026-05-06 09:03 52.87543 1.87420 32841 ft 452 kts 103°
2026-05-06 09:04 52.86923 1.92478 32268 ft 448 kts 103°
2026-05-06 09:04 52.86299 1.97541 31450 ft 451 kts 103°
2026-05-06 09:04 52.85665 2.02661 30576 ft 457 kts 104°
2026-05-06 09:04 52.85023 2.07823 29879 ft 457 kts 104°
2026-05-06 09:05 52.84386 2.12943 29297 ft 452 kts 104°
2026-05-06 09:05 52.83755 2.17994 28751 ft 446 kts 104°
2026-05-06 09:05 52.83129 2.22990 28180 ft 441 kts 104°
2026-05-06 09:05 52.82512 2.27896 27487 ft 431 kts 104°
2026-05-06 09:06 52.81902 2.32719 26801 ft 424 kts 104°
2026-05-06 09:06 52.81300 2.37465 26284 ft 420 kts 104°
2026-05-06 09:06 52.80703 2.42161 25767 ft 417 kts 104°
2026-05-06 09:06 52.80106 2.46833 25270 ft 414 kts 104°
2026-05-06 09:07 52.79512 2.51463 24801 ft 411 kts 104°
2026-05-06 09:07 52.78919 2.56065 24394 ft 407 kts 104°
2026-05-06 09:07 52.78324 2.60650 23998 ft 411 kts 104°
2026-05-06 09:07 52.77720 2.65287 23578 ft 416 kts 104°
2026-05-06 09:08 52.77111 2.69967 23079 ft 415 kts 104°
2026-05-06 09:08 52.76509 2.74589 22624 ft 410 kts 104°
2026-05-06 09:08 52.75912 2.79147 22224 ft 404 kts 104°
2026-05-06 09:08 52.75331 2.83618 21809 ft 400 kts 103°
2026-05-06 09:09 52.74757 2.88096 21402 ft 397 kts 103°
2026-05-06 09:09 52.74184 2.92562 21000 ft 398 kts 103°
2026-05-06 09:09 52.73607 2.97024 20595 ft 399 kts 104°
2026-05-06 09:09 52.72748 3.01352 20167 ft 397 kts 120°
2026-05-06 09:10 52.71371 3.05281 19807 ft 393 kts 122°
2026-05-06 09:10 52.69967 3.09147 19401 ft 393 kts 122°
2026-05-06 09:10 52.68570 3.13009 19006 ft 392 kts 122°
2026-05-06 09:10 52.67187 3.16875 18612 ft 391 kts 121°
2026-05-06 09:11 52.65813 3.20751 18218 ft 393 kts 121°
2026-05-06 09:11 52.64445 3.24627 17755 ft 390 kts 121°
2026-05-06 09:11 52.63092 3.28464 17336 ft 385 kts 121°
2026-05-06 09:11 52.61760 3.32245 16935 ft 378 kts 121°
2026-05-06 09:12 52.60450 3.35950 16560 ft 370 kts 121°
2026-05-06 09:12 52.59167 3.39574 16183 ft 365 kts 120°
2026-05-06 09:12 52.58202 3.43428 15804 ft 367 kts 102°
2026-05-06 09:12 52.57749 3.47565 15478 ft 369 kts 99°
2026-05-06 09:13 52.57338 3.51749 15102 ft 371 kts 99°
2026-05-06 09:13 52.56928 3.55925 14713 ft 368 kts 99°
2026-05-06 09:13 52.56516 3.59998 14345 ft 364 kts 99°
2026-05-06 09:13 52.56093 3.64065 13984 ft 358 kts 100°
2026-05-06 09:14 52.55669 3.68068 13613 ft 354 kts 100°
2026-05-06 09:14 52.55242 3.72047 13223 ft 352 kts 100°
2026-05-06 09:14 52.54814 3.76005 12852 ft 350 kts 100°
2026-05-06 09:14 52.54388 3.79934 12498 ft 348 kts 100°
2026-05-06 09:15 52.53964 3.83836 12136 ft 345 kts 99°
2026-05-06 09:15 52.53547 3.87655 11788 ft 335 kts 99°
2026-05-06 09:15 52.53139 3.91378 11445 ft 326 kts 99°
2026-05-06 09:15 52.52743 3.94974 11116 ft 314 kts 99°
2026-05-06 09:16 52.52258 3.98399 10799 ft 303 kts 107°
2026-05-06 09:16 52.51523 4.01591 10508 ft 295 kts 111°
2026-05-06 09:16 52.50740 4.04643 10233 ft 293 kts 112°
2026-05-06 09:16 52.49945 4.07723 9930 ft 293 kts 111°
2026-05-06 09:17 52.49159 4.10808 9635 ft 293 kts 111°
2026-05-06 09:17 52.48385 4.13897 9316 ft 293 kts 110°
2026-05-06 09:17 52.47616 4.16994 8984 ft 292 kts 110°
2026-05-06 09:17 52.46856 4.20072 8683 ft 290 kts 110°
2026-05-06 09:18 52.46104 4.23131 8386 ft 289 kts 110°
2026-05-06 09:18 52.45377 4.26090 8099 ft 286 kts 110°
2026-05-06 09:18 52.44647 4.29051 7805 ft 282 kts 110°
2026-05-06 09:18 52.43916 4.32011 7521 ft 276 kts 110°
2026-05-06 09:19 52.43193 4.34882 7239 ft 271 kts 114°
2026-05-06 09:19 52.42007 4.37243 6955 ft 271 kts 143°
2026-05-06 09:19 52.40280 4.38395 6694 ft 270 kts 171°
2026-05-06 09:19 52.38406 4.38410 6449 ft 269 kts 184°
2026-05-06 09:20 52.36537 4.38148 6157 ft 270 kts 184°
2026-05-06 09:20 52.34661 4.37868 5852 ft 272 kts 184°
2026-05-06 09:20 52.32798 4.37607 5562 ft 272 kts 183°
2026-05-06 09:20 52.30916 4.37356 5286 ft 271 kts 182°
2026-05-06 09:21 52.29040 4.37115 5001 ft 269 kts 182°
2026-05-06 09:21 52.27181 4.36878 4727 ft 267 kts 182°
2026-05-06 09:21 52.25337 4.36842 4432 ft 262 kts 165°
2026-05-06 09:21 52.23744 4.38035 4193 ft 247 kts 136°
2026-05-06 09:22 52.22665 4.40095 3971 ft 232 kts 116°
2026-05-06 09:22 52.21952 4.42377 3737 ft 221 kts 111°
2026-05-06 09:22 52.21322 4.44595 3505 ft 210 kts 110°
2026-05-06 09:22 52.20882 4.46740 3420 ft 190 kts 93°
2026-05-06 09:23 52.20806 4.48879 3246 ft 188 kts 88°
2026-05-06 09:23 52.20787 4.50285 3125 ft 186 kts 88°
2026-05-06 09:23 52.20971 4.53019 2808 ft 179 kts 64°
2026-05-06 09:23 52.21606 4.54731 2601 ft 177 kts 56°
2026-05-06 09:24 52.22276 4.56422 2448 ft 176 kts 56°
2026-05-06 09:24 52.22932 4.58080 2238 ft 172 kts 56°
2026-05-06 09:24 52.23550 4.59691 2023 ft 162 kts 56°
2026-05-06 09:24 52.24119 4.61182 1839 ft 147 kts 56°
2026-05-06 09:25 52.24633 4.62528 1626 ft 138 kts 56°
2026-05-06 09:25 52.25127 4.63822 1451 ft 133 kts 56°
2026-05-06 09:25 52.25617 4.65106 1282 ft 133 kts 55°
2026-05-06 09:25 52.26114 4.66401 1078 ft 136 kts 57°
2026-05-06 09:26 52.26609 4.67705 872 ft 137 kts 56°
2026-05-06 09:26 52.27110 4.69003 697 ft 136 kts 56°
2026-05-06 09:26 52.27609 4.70315 495 ft 135 kts 57°
2026-05-06 09:26 52.28107 4.71613 364 ft 134 kts 56°
2026-05-06 09:27 52.28607 4.72921 166 ft 137 kts 58°
2026-05-06 09:27 52.29106 4.74237 6 ft 134 kts 57°
2026-05-06 09:27 52.29558 4.75411 -3 ft 106 kts 57°
2026-05-06 09:27 52.29885 4.76261 -4 ft 71 kts 58°
2026-05-06 09:28 52.30086 4.76788 -3 ft 44 kts 58°
2026-05-06 09:28 52.30237 4.77179 -4 ft 26 kts 58°
2026-05-06 09:28 52.30365 4.77358 -4 ft 9 kts 27°
2026-05-06 09:28 52.30406 4.77392 -3 ft 5 kts 27°
2026-05-06 09:29 52.30438 4.77417 -3 ft 5 kts 18°
2026-05-06 09:29 52.30472 4.77414 -2 ft 5 kts 340°
2026-05-06 09:29 52.30511 4.77391 -2 ft 9 kts
2026-05-06 09:29 52.30572 4.77490 -2 ft 14 kts 53°
2026-05-06 09:30 52.30647 4.77585 -2 ft 14 kts 10°
2026-05-06 09:30 52.30710 4.77593 -2 ft 13 kts
2026-05-06 09:30 52.30797 4.77600 -2 ft 11 kts 356°
2026-05-06 09:30 52.30833 4.77508 -2 ft 11 kts 274°
2026-05-06 09:31 52.30837 4.77390 -2 ft 10 kts 273°
2026-05-06 09:31 52.30842 4.77264 -2 ft 6 kts 282°
2026-05-06 09:31 52.30874 4.77238 -2 ft 3 kts 358°
2026-05-06 09:31 52.30890 4.77238 -2 ft 1 kts
2026-05-06 09:32 52.30896 4.77238 -2 ft 1 kts
2026-05-06 09:32 52.30899 4.77239 -2 ft 0 kts